Regional Weather Roundup
Issued by NWS Charleston, WV

Home | Current Version | Previous Version | Graphics & Text | Print | Product List | Glossary On
Versions: 1 2 3 4 5 6 7 8 9 10 11 12 13 14 15 16 17 18 19 20 21 22 23 24 25 26 27 28 29 30 31 32 33 34 35 36 37 38 39 40 41 42 43 44 45 46 47 48 49 50
652
ASUS41 KRLX 230310
RWRRLX
West Virginia Regional Weather Roundup
National Weather Service Charleston WV
1100 PM EDT SAT APR 22 2017

Note: "fair" indicates few or no clouds below 12,000 feet with no
significant weather and/or obstructions to visibility.

WVZ003-230400-
Northern Panhandle of West Virginia

CITY           SKY/WX    TMP DP  RH WIND       PRES   REMARKS
WHEELING       MOCLDY    47  34  60 N7        30.07R
$$

WVZ009-230400-
Northwest West Virginia

CITY           SKY/WX    TMP DP  RH WIND       PRES   REMARKS
PARKERSBURG    CLOUDY    50  39  66 N3        30.09R
$$

WVZ006-230400-
Western West Virginia

CITY           SKY/WX    TMP DP  RH WIND       PRES   REMARKS
HUNTINGTON     CLOUDY    48  42  80 CALM      30.03S
$$

WVZ015-230400-
West Central West Virginia

CITY           SKY/WX    TMP DP  RH WIND       PRES   REMARKS
CHARLESTON     MOCLDY    47  45  93 CALM      30.03R
$$

WVZ022-031-230400-
North Central West Virginia

CITY           SKY/WX    TMP DP  RH WIND       PRES   REMARKS
CLARKSBURG     CLOUDY    47  41  80 NE3       30.04F
MORGANTOWN     CLOUDY    47  40  76 CALM      30.06F
$$

WVZ025-035-042-045-230400-
Southern West Virginia

CITY           SKY/WX    TMP DP  RH WIND       PRES   REMARKS
BECKLEY        FOG       45  45 100 NW7       30.00R VSB 1/4
LOGAN          CLOUDY    46  46 100 N8        30.00S FOG
BLUEFIELD      LGT RAIN  46  45  96 SE8       29.96F FOG
LEWISBURG      CLOUDY    48  46  93 NE3       29.98F
$$

WVZ047-230400-
Northern Mountains of West Virginia

CITY           SKY/WX    TMP DP  RH WIND       PRES   REMARKS
ELKINS         CLOUDY    45  39  79 NW3       30.04S
$$

WVZ052-230400-
Eastern Panhandle of West Virginia

CITY           SKY/WX    TMP DP  RH WIND       PRES   REMARKS
MARTINSBURG    PTCLDY    45  44  97 CALM      30.03S FOG
PETERSBURG     CLOUDY    47  47  98 CALM      30.07R FOG
$$




USA.gov is the U.S. government's official web portal to all federal, state and local government web resources and services.